Location: Jackson Park
(37.2862°N, 79.9123°W)
Time: 20:08:47
(UTC+00:00)

Hubble Space Telescope - Visible Passes

Search period start: 10 April 2026 00:00
Search period end: 20 April 2026 00:00
Orbit: 474 x 477 km, 28.5° (Epoch: 10 April)

Date Brightness Start Highest point End Pass type
(mag) Time Alt. Az. Time Alt. Az. Time Alt. Az.
10 Apr 2.2 09:38:52 18° SSW 09:40:01 20° S 09:42:49 10° SE visible
11 Apr 2.3 09:09:25 19° SSE 09:09:25 19° SSE 09:11:41 10° SE visible
12 Apr 3.1 08:39:58 13° SE 08:39:58 13° SE 08:40:33 10° SE visible
12 Apr 2.3 10:14:17 10° SW 10:16:58 19° S 10:19:39 10° SE visible
13 Apr 2.2 09:44:36 16° SSW 09:45:49 19° S 09:48:31 10° SE visible
14 Apr 2.3 09:15:15 18° S 09:15:15 18° S 09:17:21 10° SE visible
15 Apr 3.2 08:45:58 11° SE 08:45:58 11° SE 08:46:11 10° SE visible
